{"data":{"norad_id":65106,"epoch":"2026-05-25T03:45:11.357280Z","epoch_age_seconds":51705,"freshness":"FRESH","line1":"1 65106U 25168A   26145.15638145 -.00000071  00000+0  11421-3 0  9991","line2":"2 65106  50.0042  48.5662 0008528  33.8082 326.3333 13.29317710 39626","mean_motion":13.2931771,"eccentricity":0.0008528,"inclination_deg":50.0042,"raan_deg":48.5662,"arg_perigee_deg":33.8082,"mean_anomaly_deg":326.3333,"bstar":0.00011421,"rev_number":3962,"period_min":108.32624805698,"perigee_km":1142.9184367612,"apogee_km":1155.7572978949,"semimajor_km":7527.4748673281,"source":"CELESTRAK","updated_at":"2026-05-25T13:38:05.133175Z"}}